SCP
0 0 0 0 0 0 0 0 0 0 0 0 0 0 0 0 0 0 0 0 0 0 0 0 0 0 0 0 0 0 0 0 0 0 0 0 0 0 0 0 0 0 0
0 0 0 0 0 0 0 0 0 0 0 0 0 0 0 0 0 0 0 0 0 0 0 0 0 0 0 0 0 0 0 0 0 0 0 0 0 0 0 0 0 0 0
0 0 0 0 0 0 0 0 0 0 0 0 0 0 0 0 0 0 0 0 0 0 0 0 0 0 0 0 0 0 0 0 0 0 0 0 0 0 0 0 0 0 0
0 0 0 0 0 0 0 0 0 0 0 0 0 0 0 0 0 0 0 0 0 0 0 0 0 0 0 0 0 0 0 0 0 0 0 0 0 0 0 0 0 0 0
0 0 0 0 0 0 0 0 0 0 0 0 0 0 0 0 0 0 0 0 0 0 0 0 0 0 0 0 0 0 0 0 0 0 0 0 0 0 0 0 0 0 0
0 0 0 0 0 0 0 0 0 0 0 0 0 0 0 0 0 0 0 0 0 0 0 0 0 0 0 0 0 0 0 0 0 0 0 0 0 0 0 0 0 0 0
0 0 0 0 0 0 0 0 0 0 0 0 0 0 0 0 0 0 0 0 0 0 0 0 0 0 0 0 0 0 0 0 0 0 0 0 0 0 0 0 0 0 0
0 0 0 0 0 0 0 0 0 0 0 0 0 0 0 0 0 0 0 0 0 0 0 0 0 0 0 0 0 0 0 0 0 0 0 0 0 0 0 0 0 0 0
0 0 0 0 0 0 0 0 0 0 0 0 0 0 0 0 0 0 0 0 0 0 0 0 0 0 0 0 0 0 0 0 0 0 0 0 0 0 0 0 0 0 0
0 0 0 0 0 0 0 0 0 0 0 0 0 0 0 0 0 0 0 0 0 0 0 0 0 0 0 0 0 0 0 0 0 0 0 0 0 0 0 0 0 0 0
0 0 0 0 0 0 0 0 0 0 0 0 0 0 0 0 0 0 0 0 0 0 0 0 0 0 0 0 0 0 0 0 0 0 0 0 0 0 0 0 0 0 0
0 0 0 0 0 0 0 0 0 0 0 0 0 0 0 0 0 0 0 0 0 0 0 0 0 0 0 0 0 0 0 0 0 0 0 0 0 0 0 0 0 0 0
0 0 0 0 0 0 0 0 0 0 0 0 0 0 0 0 0 0 0 0 0 0 0 0 0 0 0 0 0 0 0 0 0 0 0 0 0 0 0 0 0 0 0
0 0 0 0 0 0 0 0 0 0 0 0 0 0 0 0 0 0 0 0 0 0 0 0 0 0 0 0 0 0 0 0 0 0 0 0 0 0 0 0 0 0 0
0 0 0 0 0 0 0 0 0 0 0 0 0 0 0 0 0 0 0 0 0 0 0 0 0 0 0 0 0 0 0 0 0 0 0 0 0 0 0 0 0 0 0
0 0 0 0 0 0 0 0 0 0 0 0 0 0 0 0 0 0 0 0 0 0 0 0 0 0 0 0 0 0 0 0 0 0 0 0 0 0 0 0 0 0 0
0 0 0 0 0 0 0 0 0 0 0 0 0 0 0 0 0 0 0 0 0 0 0 0 0 0 0 0 0 0 0 0 0 0 0 0 0 0 0 0 0 0 0
0 0 0 0 0 0 0 0 0 0 0 0 0 0 0 0 0 0 0 0 0 0 0 0 0 0 0 0 0 0 0 0 0 0 0 0 0 0 0 0 0 0 0
0 0 0 0 0 0 0 0 0 0 0 0 0 0 0 0 0 0 0 0 0 0 0 0 0 0 0 0 0 0 0 0 0 0 0 0 0 0 0 0 0 0 0
0 0 0 0 0 0 0 0 0 0 0 0 0 0 0 0 0 0 0 0 0 0 0 0 0 0 0 0 0 0 0 0 0 0 0 0 0 0 0 0 0 0 0
0 0 0 0 0 0 0 0 0 0 0 0 0 0 0 0 0 0 0 0 0 0 0 0 0 0 0 0 0 0 0 0 0 0 0 0 0 0 0 0 0 0 0
0 0 0 0 0 0 0 0 0 0 0 0 0 0 0 0 0 0 0 0 0 0 0 0 0 0 0 0 0 0 0 0 0 0 0 0 0 0 0 0 0 0 0
0 0 0 0 0 0 0 0 0 0 0 0 0 0 0 0 0 0 0 0 0 0 0 0 0 0 0 0 0 0 0 0 0 0 0 0 0 0 0 0 0 0 0
0 0 0 0 0 0 0 0 0 0 0 0 0 0 0 0 0 0 0 0 0 0 0 0 0 0 0 0 0 0 0 0 0 0 0 0 0 0 0 0 0 0 0
0 0 0 0 0 0 0 0 0 0 0 0 0 0 0 0 0 0 0 0 0 0 0 0 0 0 0 0 0 0 0 0 0 0 0 0 0 0 0 0 0 0 0
0 0 0 0 0 0 0 0 0 0 0 0 0 0 0 0 0 0 0 0 0 0 0 0 0 0 0 0 0 0 0 0 0 0 0 0 0 0 0 0 0 0 0
Wind_Speed_500mb
89 92 97 98 99 96 96 96 96 94 95 92 81 73 75 81 77 71 65 61 49 49 55 55 56 49 44 40 36 30 25 21 17 15 16 17 21 23 26 27 25 25 23
79 85 87 93 95 95 97 94 92 92 91 90 88 79 74 81 86 81 75 68 60 51 57 59 59 53 47 43 39 32 28 23 16 13 15 17 19 22 24 25 23 23 22
61 71 78 83 89 92 93 94 90 94 95 90 87 84 79 78 91 91 86 74 61 53 53 61 59 53 49 45 40 36 31 25 18 14 15 19 21 22 26 25 24 24 24
47 57 69 72 73 80 80 78 81 90 93 92 90 84 78 77 94 88 87 75 67 57 57 62 58 52 48 44 42 37 32 26 19 16 16 19 24 24 27 27 24 24 23
34 42 50 60 70 72 69 71 75 77 77 79 81 76 80 70 93 99 87 80 77 62 64 65 60 52 49 47 42 36 32 26 20 16 17 23 26 28 30 30 29 27 23
30 33 35 42 51 57 58 65 67 68 68 68 70 73 75 76 86 100 91 86 83 66 71 67 61 54 52 48 42 37 31 26 19 17 20 29 28 31 33 33 33 33 26
31 30 31 34 36 36 39 46 51 59 62 67 70 74 70 80 82 88 84 82 78 68 70 65 61 55 53 50 44 38 32 24 16 22 29 31 32 30 34 35 33 33 32
28 29 29 31 34 39 43 46 50 55 62 66 68 73 72 66 79 72 89 79 70 60 62 57 55 52 52 50 44 37 29 15 22 28 38 36 33 34 35 35 32 34 33
27 25 28 30 33 35 39 41 44 45 48 51 53 62 67 73 75 84 77 70 60 62 61 58 55 54 53 48 41 35 21 18 27 34 51 42 38 36 35 34 32 35 36
19 21 24 26 29 30 31 29 29 33 36 41 47 50 53 72 75 73 72 69 63 68 68 65 60 53 49 46 39 30 15 23 32 46 51 44 42 37 36 37 36 35 32
15 18 20 23 26 26 29 26 27 36 40 45 47 56 54 60 68 72 63 58 67 68 64 63 55 52 48 44 37 26 20 30 49 55 50 48 42 41 39 38 38 38 36
11 13 17 21 23 26 27 28 30 32 44 43 48 47 50 57 61 59 61 59 63 63 63 56 49 47 45 41 30 26 41 46 56 58 54 49 44 43 42 39 37 36 35
19 17 16 19 22 25 27 29 31 34 40 43 44 49 51 55 61 63 56 59 61 58 53 46 46 44 40 33 32 38 54 66 59 58 50 47 44 46 44 43 42 42 41
24 23 21 20 20 24 26 28 32 36 39 41 44 49 53 53 54 56 59 59 54 52 53 52 48 46 43 37 35 49 65 62 61 55 51 52 50 45 44 43 45 42 43
25 26 26 26 24 24 25 28 30 32 36 39 41 45 46 50 56 55 43 42 51 56 54 54 51 49 44 43 58 63 66 52 60 54 56 55 51 47 44 42 43 42 44
21 21 20 20 21 21 22 25 27 29 34 39 43 41 41 41 37 36 45 48 43 43 48 49 49 47 52 58 58 54 50 59 53 62 61 56 52 49 46 42 40 39 41
16 19 20 20 19 18 17 19 22 26 28 29 33 34 32 31 21 26 34 39 45 51 56 57 56 60 61 59 59 55 57 59 63 66 61 57 53 52 49 45 40 40 41
19 20 20 20 19 19 19 20 21 23 27 29 28 29 25 21 23 31 37 48 55 59 59 62 66 79 68 60 63 62 56 58 64 65 61 56 54 52 50 47 43 41 40
19 19 20 22 23 23 24 25 23 22 22 26 29 26 24 24 27 32 39 49 56 59 67 80 78 65 63 57 59 57 56 54 58 61 59 56 55 53 51 47 43 41 41
24 25 25 24 23 24 25 25 24 22 20 20 21 20 23 25 31 39 44 53 59 69 74 71 66 63 62 62 61 55 56 59 55 58 57 56 53 51 49 45 42 41 40
24 24 25 26 26 26 26 25 23 24 23 20 17 17 21 29 34 38 45 54 63 70 72 70 70 69 64 62 54 56 58 58 59 56 55 53 50 49 46 45 43 41 41
23 24 24 24 25 25 25 23 22 19 18 17 16 18 25 29 35 40 46 52 57 62 65 67 68 67 66 60 58 59 59 59 58 57 54 52 50 48 46 45 42 39 38
24 26 26 26 26 25 24 22 22 22 22 23 26 29 33 37 40 44 49 53 54 56 57 56 56 56 55 54 56 59 59 58 55 53 54 52 50 48 46 45 42 40 39
25 28 31 32 31 31 29 29 28 30 31 33 35 37 40 41 46 50 53 56 55 53 53 52 53 53 54 56 58 58 57 55 55 54 54 54 53 49 49 48 43 40 38
28 29 32 34 37 39 40 40 40 40 40 42 45 48 49 50 51 52 52 53 52 51 49 49 50 52 55 56 55 53 52 51 53 53 54 55 54 52 50 48 44 43 40
35 36 37 39 40 42 44 45 46 48 50 50 50 50 50 50 49 48 48 48 49 50 50 49 48 48 48 49 49 49 49 49 50 50 51 53 54 52 49 47 44 44 42
Wind_Direction_500mb
247 246 246 247 248 248 248 249 249 248 251 252 252 247 242 242 242 237 237 240 242 250 250 243 233 230 231 228 222 221 222 222 225 245 275 302 317 326 336 342 345 349 353
250 250 249 249 248 247 250 251 248 245 244 250 252 251 245 238 238 236 238 237 238 251 249 235 229 228 227 224 221 221 224 229 237 256 284 304 313 319 329 333 333 338 341
245 246 250 250 250 251 252 253 251 248 246 245 250 250 248 241 236 235 237 233 235 246 249 232 230 229 228 222 219 221 224 227 237 259 288 302 306 314 321 326 325 329 326
257 251 245 245 246 249 249 244 243 244 249 251 251 250 253 249 239 235 238 230 233 236 237 227 228 229 231 224 222 223 223 224 234 255 281 296 300 307 311 320 319 316 310
268 258 254 249 248 243 240 243 247 250 253 250 250 252 251 245 242 232 235 232 232 232 224 225 225 226 226 224 225 226 226 227 235 258 283 298 297 299 309 312 317 317 305
276 270 259 256 253 252 250 249 249 252 256 255 253 254 252 251 244 245 229 237 235 228 223 219 223 224 224 224 225 226 228 235 247 272 299 289 292 297 303 308 313 317 317
279 266 264 263 262 260 258 256 253 250 251 251 252 252 251 251 241 248 237 254 231 227 221 221 223 222 221 222 224 224 226 235 261 299 291 285 288 298 297 301 307 302 300
275 271 267 264 262 261 257 254 253 254 254 252 251 257 252 255 252 242 248 238 232 229 227 227 225 225 222 222 223 223 224 240 294 294 286 283 290 290 292 296 300 297 297
280 277 274 272 272 272 271 270 267 261 258 258 256 250 254 251 242 247 236 230 222 219 227 226 226 225 224 222 222 219 219 282 293 304 283 285 287 290 291 295 303 301 306
276 272 275 276 277 281 279 280 281 280 270 260 257 253 251 245 242 233 230 234 223 221 223 223 224 223 224 223 219 216 248 290 302 289 282 283 285 287 287 291 291 293 294
288 271 270 278 284 287 287 284 280 279 276 272 268 257 249 244 233 229 229 226 223 227 227 229 227 225 224 220 216 226 263 301 306 275 279 278 278 284 284 283 281 282 285
303 288 283 279 277 276 276 276 274 273 272 270 262 254 244 238 232 235 234 223 226 230 235 233 231 228 223 220 226 251 276 296 286 277 277 274 284 284 284 279 280 281 282
329 313 291 275 273 273 270 270 274 275 275 273 265 257 248 243 242 237 229 231 234 231 236 231 229 225 219 222 243 275 293 285 282 274 277 282 283 280 281 282 283 280 279
328 317 305 291 280 272 268 261 260 267 273 271 267 261 255 246 239 238 237 236 238 240 235 231 225 219 221 237 270 280 279 288 274 274 281 280 278 278 278 278 276 278 278
332 324 317 312 304 291 283 276 264 259 264 268 269 267 265 259 254 253 255 252 256 244 232 226 222 221 229 263 268 276 284 272 271 277 276 277 278 277 275 274 275 276 276
341 335 331 326 321 311 301 293 288 283 280 280 275 265 262 257 255 255 262 257 249 242 235 230 228 234 258 261 272 276 269 267 271 275 278 277 276 275 276 275 275 272 271
345 339 336 336 332 330 327 317 306 294 288 291 294 293 276 261 239 240 248 247 243 237 233 226 236 246 254 267 273 268 263 268 271 275 275 274 274 273 273 275 273 271 270
3 355 349 347 343 338 334 328 322 315 305 296 294 297 288 259 245 245 245 243 240 236 239 247 258 258 261 273 269 259 265 268 273 275 273 273 272 272 270 271 270 269 269
18 19 16 9 4 1 355 349 342 333 317 303 295 288 279 255 235 239 244 245 248 250 255 255 255 264 272 270 262 258 264 273 276 277 275 274 271 270 269 269 271 270 268
21 19 20 22 23 20 16 8 358 345 331 321 307 291 282 273 256 246 243 248 252 254 255 261 266 273 277 270 266 265 266 264 267 273 274 272 271 270 271 272 270 270 268
27 23 21 18 17 17 16 15 11 5 355 346 322 292 277 273 270 266 260 259 263 266 271 275 280 281 273 265 267 272 273 274 270 266 269 271 270 270 270 270 270 268 271
19 16 13 11 7 5 3 358 353 349 346 340 322 299 289 284 279 276 275 276 279 280 281 281 280 277 271 269 277 279 279 278 276 272 270 268 267 268 267 267 267 269 271
8 4 359 357 354 349 345 341 336 325 313 301 292 284 280 281 280 279 281 284 285 286 285 283 280 277 275 274 275 279 279 278 275 270 268 267 266 265 265 265 266 266 267
349 347 344 337 335 331 325 320 313 306 301 295 288 283 281 278 279 282 285 286 287 286 285 283 280 280 280 280 281 281 279 277 274 271 269 267 267 266 266 266 264 265 264
329 327 325 322 320 317 314 309 304 298 292 287 285 284 284 284 284 284 285 286 286 286 286 284 282 281 281 281 280 279 277 275 274 272 269 268 267 266 265 265 265 263 261
313 314 314 314 314 312 309 307 304 301 298 294 291 288 287 287 286 286 285 284 284 284 283 282 282 281 280 279 280 279 277 276 274 274 272 269 268 267 265 264 264 265 265
Wind_Speed_850mb
89 92 97 98 99 96 96 96 96 94 95 92 81 73 75 81 77 71 65 61 49 49 55 55 56 49 44 40 36 30 25 21 17 15 16 17 21 23 26 27 25 25 23
79 85 87 93 95 95 97 94 92 92 91 90 88 79 74 81 86 81 75 68 60 51 57 59 59 53 47 43 39 32 28 23 16 13 15 17 19 22 24 25 23 23 22
61 71 78 83 89 92 93 94 90 94 95 90 87 84 79 78 91 91 86 74 61 53 53 61 59 53 49 45 40 36 31 25 18 14 15 19 21 22 26 25 24 24 24
47 57 69 72 73 80 80 78 81 90 93 92 90 84 78 77 94 88 87 75 67 57 57 62 58 52 48 44 42 37 32 26 19 16 16 19 24 24 27 27 24 24 23
34 42 50 60 70 72 69 71 75 77 77 79 81 76 80 70 93 99 87 80 77 62 64 65 60 52 49 47 42 36 32 26 20 16 17 23 26 28 30 30 29 27 23
30 33 35 42 51 57 58 65 67 68 68 68 70 73 75 76 86 100 91 86 83 66 71 67 61 54 52 48 42 37 31 26 19 17 20 29 28 31 33 33 33 33 26
31 30 31 34 36 36 39 46 51 59 62 67 70 74 70 80 82 88 84 82 78 68 70 65 61 55 53 50 44 38 32 24 16 22 29 31 32 30 34 35 33 33 32
28 29 29 31 34 39 43 46 50 55 62 66 68 73 72 66 79 72 89 79 70 60 62 57 55 52 52 50 44 37 29 15 22 28 38 36 33 34 35 35 32 34 33
27 25 28 30 33 35 39 41 44 45 48 51 53 62 67 73 75 84 77 70 60 62 61 58 55 54 53 48 41 35 21 18 27 34 51 42 38 36 35 34 32 35 36
19 21 24 26 29 30 31 29 29 33 36 41 47 50 53 72 75 73 72 69 63 68 68 65 60 53 49 46 39 30 15 23 32 46 51 44 42 37 36 37 36 35 32
15 18 20 23 26 26 29 26 27 36 40 45 47 56 54 60 68 72 63 58 67 68 64 63 55 52 48 44 37 26 20 30 49 55 50 48 42 41 39 38 38 38 36
11 13 17 21 23 26 27 28 30 32 44 43 48 47 50 57 61 59 61 59 63 63 63 56 49 47 45 41 30 26 41 46 56 58 54 49 44 43 42 39 37 36 35
19 17 16 19 22 25 27 29 31 34 40 43 44 49 51 55 61 63 56 59 61 58 53 46 46 44 40 33 32 38 54 66 59 58 50 47 44 46 44 43 42 42 41
24 23 21 20 20 24 26 28 32 36 39 41 44 49 53 53 54 56 59 59 54 52 53 52 48 46 43 37 35 49 65 62 61 55 51 52 50 45 44 43 45 42 43
25 26 26 26 24 24 25 28 30 32 36 39 41 45 46 50 56 55 43 42 51 56 54 54 51 49 44 43 58 63 66 52 60 54 56 55 51 47 44 42 43 42 44
21 21 20 20 21 21 22 25 27 29 34 39 43 41 41 41 37 36 45 48 43 43 48 49 49 47 52 58 58 54 50 59 53 62 61 56 52 49 46 42 40 39 41
16 19 20 20 19 18 17 19 22 26 28 29 33 34 32 31 21 26 34 39 45 51 56 57 56 60 61 59 59 55 57 59 63 66 61 57 53 52 49 45 40 40 41
19 20 20 20 19 19 19 20 21 23 27 29 28 29 25 21 23 31 37 48 55 59 59 62 66 79 68 60 63 62 56 58 64 65 61 56 54 52 50 47 43 41 40
19 19 20 22 23 23 24 25 23 22 22 26 29 26 24 24 27 32 39 49 56 59 67 80 78 65 63 57 59 57 56 54 58 61 59 56 55 53 51 47 43 41 41
24 25 25 24 23 24 25 25 24 22 20 20 21 20 23 25 31 39 44 53 59 69 74 71 66 63 62 62 61 55 56 59 55 58 57 56 53 51 49 45 42 41 40
24 24 25 26 26 26 26 25 23 24 23 20 17 17 21 29 34 38 45 54 63 70 72 70 70 69 64 62 54 56 58 58 59 56 55 53 50 49 46 45 43 41 41
23 24 24 24 25 25 25 23 22 19 18 17 16 18 25 29 35 40 46 52 57 62 65 67 68 67 66 60 58 59 59 59 58 57 54 52 50 48 46 45 42 39 38
24 26 26 26 26 25 24 22 22 22 22 23 26 29 33 37 40 44 49 53 54 56 57 56 56 56 55 54 56 59 59 58 55 53 54 52 50 48 46 45 42 40 39
25 28 31 32 31 31 29 29 28 30 31 33 35 37 40 41 46 50 53 56 55 53 53 52 53 53 54 56 58 58 57 55 55 54 54 54 53 49 49 48 43 40 38
28 29 32 34 37 39 40 40 40 40 40 42 45 48 49 50 51 52 52 53 52 51 49 49 50 52 55 56 55 53 52 51 53 53 54 55 54 52 50 48 44 43 40
35 36 37 39 40 42 44 45 46 48 50 50 50 50 50 50 49 48 48 48 49 50 50 49 48 48 48 49 49 49 49 49 50 50 51 53 54 52 49 47 44 44 42
Wind_Direction_850mb
247 246 246 247 248 248 248 249 249 248 251 252 252 247 242 242 242 237 237 240 242 250 250 243 233 230 231 228 222 221 222 222 225 245 275 302 317 326 336 342 345 349 353
250 250 249 249 248 247 250 251 248 245 244 250 252 251 245 238 238 236 238 237 238 251 249 235 229 228 227 224 221 221 224 229 237 256 284 304 313 319 329 333 333 338 341
245 246 250 250 250 251 252 253 251 248 246 245 250 250 248 241 236 235 237 233 235 246 249 232 230 229 228 222 219 221 224 227 237 259 288 302 306 314 321 326 325 329 326
257 251 245 245 246 249 249 244 243 244 249 251 251 250 253 249 239 235 238 230 233 236 237 227 228 229 231 224 222 223 223 224 234 255 281 296 300 307 311 320 319 316 310
268 258 254 249 248 243 240 243 247 250 253 250 250 252 251 245 242 232 235 232 232 232 224 225 225 226 226 224 225 226 226 227 235 258 283 298 297 299 309 312 317 317 305
276 270 259 256 253 252 250 249 249 252 256 255 253 254 252 251 244 245 229 237 235 228 223 219 223 224 224 224 225 226 228 235 247 272 299 289 292 297 303 308 313 317 317
279 266 264 263 262 260 258 256 253 250 251 251 252 252 251 251 241 248 237 254 231 227 221 221 223 222 221 222 224 224 226 235 261 299 291 285 288 298 297 301 307 302 300
275 271 267 264 262 261 257 254 253 254 254 252 251 257 252 255 252 242 248 238 232 229 227 227 225 225 222 222 223 223 224 240 294 294 286 283 290 290 292 296 300 297 297
280 277 274 272 272 272 271 270 267 261 258 258 256 250 254 251 242 247 236 230 222 219 227 226 226 225 224 222 222 219 219 282 293 304 283 285 287 290 291 295 303 301 306
276 272 275 276 277 281 279 280 281 280 270 260 257 253 251 245 242 233 230 234 223 221 223 223 224 223 224 223 219 216 248 290 302 289 282 283 285 287 287 291 291 293 294
288 271 270 278 284 287 287 284 280 279 276 272 268 257 249 244 233 229 229 226 223 227 227 229 227 225 224 220 216 226 263 301 306 275 279 278 278 284 284 283 281 282 285
303 288 283 279 277 276 276 276 274 273 272 270 262 254 244 238 232 235 234 223 226 230 235 233 231 228 223 220 226 251 276 296 286 277 277 274 284 284 284 279 280 281 282
329 313 291 275 273 273 270 270 274 275 275 273 265 257 248 243 242 237 229 231 234 231 236 231 229 225 219 222 243 275 293 285 282 274 277 282 283 280 281 282 283 280 279
328 317 305 291 280 272 268 261 260 267 273 271 267 261 255 246 239 238 237 236 238 240 235 231 225 219 221 237 270 280 279 288 274 274 281 280 278 278 278 278 276 278 278
332 324 317 312 304 291 283 276 264 259 264 268 269 267 265 259 254 253 255 252 256 244 232 226 222 221 229 263 268 276 284 272 271 277 276 277 278 277 275 274 275 276 276
341 335 331 326 321 311 301 293 288 283 280 280 275 265 262 257 255 255 262 257 249 242 235 230 228 234 258 261 272 276 269 267 271 275 278 277 276 275 276 275 275 272 271
345 339 336 336 332 330 327 317 306 294 288 291 294 293 276 261 239 240 248 247 243 237 233 226 236 246 254 267 273 268 263 268 271 275 275 274 274 273 273 275 273 271 270
3 355 349 347 343 338 334 328 322 315 305 296 294 297 288 259 245 245 245 243 240 236 239 247 258 258 261 273 269 259 265 268 273 275 273 273 272 272 270 271 270 269 269
18 19 16 9 4 1 355 349 342 333 317 303 295 288 279 255 235 239 244 245 248 250 255 255 255 264 272 270 262 258 264 273 276 277 275 274 271 270 269 269 271 270 268
21 19 20 22 23 20 16 8 358 345 331 321 307 291 282 273 256 246 243 248 252 254 255 261 266 273 277 270 266 265 266 264 267 273 274 272 271 270 271 272 270 270 268
27 23 21 18 17 17 16 15 11 5 355 346 322 292 277 273 270 266 260 259 263 266 271 275 280 281 273 265 267 272 273 274 270 266 269 271 270 270 270 270 270 268 271
19 16 13 11 7 5 3 358 353 349 346 340 322 299 289 284 279 276 275 276 279 280 281 281 280 277 271 269 277 279 279 278 276 272 270 268 267 268 267 267 267 269 271
8 4 359 357 354 349 345 341 336 325 313 301 292 284 280 281 280 279 281 284 285 286 285 283 280 277 275 274 275 279 279 278 275 270 268 267 266 265 265 265 266 266 267
349 347 344 337 335 331 325 320 313 306 301 295 288 283 281 278 279 282 285 286 287 286 285 283 280 280 280 280 281 281 279 277 274 271 269 267 267 266 266 266 264 265 264
329 327 325 322 320 317 314 309 304 298 292 287 285 284 284 284 284 284 285 286 286 286 286 284 282 281 281 281 280 279 277 275 274 272 269 268 267 266 265 265 265 263 261
313 314 314 314 314 312 309 307 304 301 298 294 291 288 287 287 286 286 285 284 284 284 283 282 282 281 280 279 280 279 277 276 274 274 272 269 268 267 265 264 264 265 265